Tyler, TX

9:16 PM CDT on May 27, 2017 (GMT -0500)
Tyler Pounds

Weather History for KTYR - March, 2014

Change the Weather History Date:

Monday, March 31, 2014

  Actual Average Record
Temperature  
Mean Temperature 66 °F 60 °F  
Max Temperature 78 °F 70 °F 91 °F (1946)
Min Temperature 53 °F 50 °F 30 °F (1987)
Degree Days  
Heating Degree Days 0 6  
Month to date heating degree days 349 272  
Since 1 July heating degree days 2413 2165  
Cooling Degree Days 1 1  
Month to date cooling degree days 13 21  
Year to date cooling degree days 16 33  
Growing Degree Days 15 (Base 50)    
Moisture  
Dew Point 52 °F    
Average Humidity 63    
Maximum Humidity 83    
Minimum Humidity 43    
Precipitation  
Precipitation 0.00 in 0.11 in 2.23 in (1979)
Month to date precipitation 2.30 4.12  
Year to date precipitation 6.30 10.99  
Snow  
Snow 0.00 in - - ()
Month to date snowfall 1.0  
Since 1 July snowfall 1.2  
Snow Depth 0.00 in    
Sea Level Pressure  
Sea Level Pressure 29.96 in    
Wind  
Wind Speed 13 mph (South)    
Max Wind Speed 23 mph    
Max Gust Speed 28 mph    
Visibility 10 miles    
Events      
T = Trace of Precipitation, MM = Missing Value Source: NWS Daily Summary

Daily Weather History Graph

Daily Weather History Graph

Search for Another Location

Airport or City:

Trip Planner

Search our weather history database for the weather conditions in past years. The results will help you decide how hot, cold, wet, or windy it might be!

Date:

Astronomy

Mar. 31, 2014 Rise Set
Actual Time 7:11 AM CDT 7:40 PM CDT
Civil Twilight 6:46 AM CDT 8:05 PM CDT
Nautical Twilight 6:17 AM CDT 8:34 PM CDT
Astronomical Twilight 5:48 AM CDT 9:03 PM CDT
Moon 7:38 AM CDT (3/31) 8:55 PM CDT (3/31)
Length of Visible Light 13h 19m
Length of Day
12h 29m
New Moon, 1% of the Moon is Illuminated
Mar 31
New Moon
Apr 7
First Quarter
Apr 15
Full
Apr 22
Last Quarter
Apr 29
New

Hourly Weather History & Observations

Time (CDT) Temp. Dew Point Humidity Pressure Visibility Wind Dir Wind Speed Gust Speed Precip Events Conditions
12:53 AM 59.0 °F 44.1 °F 58% 30.03 in 10.0 mi South 15.0 mph - N/A   Clear
1:53 AM 57.0 °F 42.1 °F 57% 30.01 in 10.0 mi South 13.8 mph - N/A   Clear
2:53 AM 55.0 °F 41.0 °F 59% 29.99 in 10.0 mi South 9.2 mph - N/A   Clear
3:53 AM 54.0 °F 43.0 °F 66% 29.97 in 10.0 mi South 11.5 mph - N/A   Clear
4:53 AM 54.0 °F 46.0 °F 75% 29.97 in 10.0 mi South 11.5 mph - N/A   Clear
5:53 AM 53.1 °F 46.9 °F 80% 29.96 in 10.0 mi South 13.8 mph - N/A   Partly Cloudy
6:51 AM 53.6 °F 48.2 °F 82% 29.98 in 10.0 mi South 11.5 mph - N/A   Mostly Cloudy
6:53 AM 54.0 °F 48.9 °F 83% 29.96 in 10.0 mi South 12.7 mph - N/A   Mostly Cloudy
7:53 AM 55.0 °F 50.0 °F 83% 29.98 in 10.0 mi South 10.4 mph - N/A   Overcast
8:53 AM 57.0 °F 52.0 °F 83% 29.98 in 10.0 mi South 12.7 mph - N/A   Overcast
9:17 AM 57.2 °F 51.8 °F 82% 29.99 in 10.0 mi South 12.7 mph 20.7 mph N/A   Overcast
9:39 AM 60.8 °F 53.6 °F 77% 29.99 in 10.0 mi South 12.7 mph - N/A   Overcast
9:53 AM 61.0 °F 53.1 °F 75% 29.98 in 10.0 mi South 16.1 mph - N/A   Overcast
10:53 AM 66.0 °F 55.0 °F 68% 29.99 in 10.0 mi South 15.0 mph - N/A   Mostly Cloudy
11:32 AM 68.0 °F 55.4 °F 64% 29.99 in 10.0 mi South 13.8 mph 26.5 mph N/A   Scattered Clouds
11:42 AM 68.0 °F 53.6 °F 60% 29.99 in 10.0 mi South 17.3 mph 27.6 mph N/A   Mostly Cloudy
11:53 AM 69.1 °F 55.0 °F 61% 29.98 in 10.0 mi South 16.1 mph - N/A   Mostly Cloudy
12:09 PM 69.8 °F 55.4 °F 60% 29.98 in 10.0 mi South 16.1 mph 24.2 mph N/A   Scattered Clouds
12:17 PM 69.8 °F 55.4 °F 60% 29.97 in 10.0 mi South 18.4 mph 25.3 mph N/A   Mostly Cloudy
12:26 PM 69.8 °F 55.4 °F 60% 29.97 in 10.0 mi South 12.7 mph 25.3 mph N/A   Scattered Clouds
12:53 PM 71.1 °F 55.0 °F 57% 29.94 in 10.0 mi South 13.8 mph 23.0 mph N/A   Partly Cloudy
1:53 PM 75.0 °F 55.0 °F 50% 29.92 in 10.0 mi South 16.1 mph 25.3 mph N/A   Clear
2:53 PM 75.9 °F 54.0 °F 46% 29.92 in 10.0 mi South 16.1 mph 21.9 mph N/A   Scattered Clouds
3:53 PM 77.0 °F 54.0 °F 45% 29.90 in 10.0 mi South 16.1 mph 21.9 mph N/A   Clear
4:53 PM 75.9 °F 54.0 °F 46% 29.90 in 10.0 mi South 12.7 mph - N/A   Mostly Cloudy
5:53 PM 77.0 °F 55.9 °F 48% 29.88 in 10.0 mi SSW 15.0 mph - N/A   Mostly Cloudy
6:53 PM 75.9 °F 55.9 °F 50% 29.88 in 10.0 mi South 12.7 mph - N/A   Clear
7:53 PM 73.0 °F 55.0 °F 53% 29.89 in 10.0 mi South 9.2 mph - N/A   Clear
8:53 PM 71.1 °F 55.9 °F 59% 29.92 in 10.0 mi South 9.2 mph - N/A   Scattered Clouds
9:53 PM 68.0 °F 57.0 °F 68% 29.93 in 10.0 mi SSE 11.5 mph - N/A   Clear
10:53 PM 68.0 °F 55.9 °F 65% 29.94 in 10.0 mi South 12.7 mph - N/A   Clear
11:53 PM 66.0 °F 55.9 °F 70% 29.93 in 10.0 mi SSE 12.7 mph - N/A   Clear